Location: Bachas
(43.2439°N, 0.9375°E)
Time: 18:09:11
(UTC+00:00)

Meteor 2-10 Rocket - Pass Details

Date: 18 February 2020
Orbit: 734 x 885 km, 81.2° (Epoch: 27 March)

Event Time Altitude Azimuth Distance (km) Brightness Sun altitude
Exits shadow 04:03:56 51° 38° (NE) 986 4.2 -30.9°
Drops below altitude 10° 04:07:55 10° 15° (NNE) 2,321 6.3 -30.2°
Sets 04:10:15 0° 13° (NNE) 3,232 7.1 -29.8°
